CPA780 WARR-VHHH

Flight info

Callsign CPA780
Flight time N/A
Altitude 41000
Route RAMPY W31 BDM DCT ELANG R223 BRU L649 LAXOR M772 DULOP Q1 CARSO V551 BETTY
Aircraft A333/H-SDE3GHIJ2J3J5M1RVWXY/LB2D1

Departure

Time 2026-05-05 08:11
Airport Juanda International Airport (WARR)

Arrival

Time N/A
Airport Hong Kong International Airport (VHHH)
Time Latitude Longitude Altitude Speed Heading
2026-05-05 08:05 -7.38232 112.77593 19 ft 0 kts 188°
2026-05-05 08:08 -7.38217 112.77595 19 ft 3 kts 188°
2026-05-05 08:08 -7.38197 112.77597 22 ft 3 kts 202°
2026-05-05 08:08 -7.38181 112.77609 22 ft 3 kts 251°
2026-05-05 08:08 -7.38178 112.77621 20 ft 0 kts 281°
2026-05-05 08:10 -7.38177 112.77621 19 ft 0 kts 281°
2026-05-05 08:10 -7.38166 112.77611 19 ft 9 kts 319°
2026-05-05 08:10 -7.38028 112.77605 19 ft 30 kts
2026-05-05 08:10 -7.37835 112.77642 18 ft 25 kts 37°
2026-05-05 08:11 -7.37821 112.77703 19 ft 13 kts 98°
2026-05-05 08:11 -7.37867 112.77985 19 ft 83 kts 99°
2026-05-05 08:11 -7.38007 112.78862 107 ft 164 kts 99°
2026-05-05 08:11 -7.38208 112.80126 975 ft 199 kts 98°
2026-05-05 08:12 -7.38449 112.81628 2075 ft 238 kts 96°
2026-05-05 08:12 -7.38384 112.83366 3262 ft 256 kts 76°
2026-05-05 08:12 -7.37556 112.84964 4765 ft 263 kts 48°
2026-05-05 08:12 -7.36052 112.86013 6199 ft 271 kts 29°
2026-05-05 08:13 -7.34313 112.86816 7546 ft 277 kts 25°
2026-05-05 08:13 -7.32519 112.87580 8868 ft 281 kts 25°
2026-05-05 08:13 -7.30703 112.88353 10129 ft 287 kts 25°
2026-05-05 08:13 -7.28793 112.89176 10830 ft 312 kts 25°
2026-05-05 08:14 -7.26721 112.90079 11239 ft 344 kts 25°
2026-05-05 08:14 -7.24428 112.91083 11702 ft 371 kts 25°
2026-05-05 08:14 -7.21997 112.92147 12562 ft 385 kts 25°
2026-05-05 08:14 -7.19533 112.93225 13571 ft 393 kts 25°
2026-05-05 08:15 -7.16999 112.94335 14468 ft 401 kts 25°
2026-05-05 08:15 -7.14419 112.95466 15355 ft 407 kts 24°
2026-05-05 08:15 -7.11797 112.96615 16234 ft 414 kts 24°
2026-05-05 08:15 -7.09131 112.97784 17098 ft 420 kts 24°
2026-05-05 08:16 -7.06464 112.98954 17905 ft 426 kts 24°
2026-05-05 08:16 -7.03727 113.00154 18615 ft 432 kts 24°
2026-05-05 08:16 -7.00950 113.01371 19283 ft 437 kts 24°
2026-05-05 08:16 -6.98139 113.02604 19974 ft 442 kts 24°
2026-05-05 08:17 -6.95304 113.03847 20647 ft 445 kts 24°
2026-05-05 08:17 -6.92444 113.05101 21271 ft 450 kts 24°
2026-05-05 08:17 -6.89545 113.06372 21885 ft 455 kts 24°
2026-05-05 08:17 -6.86663 113.07634 22467 ft 460 kts 25°
2026-05-05 08:18 -6.83703 113.08932 23082 ft 464 kts 25°
2026-05-05 08:18 -6.80715 113.10241 23616 ft 469 kts 24°
2026-05-05 08:18 -6.77709 113.11557 24120 ft 473 kts 25°
2026-05-05 08:18 -6.74707 113.12872 24617 ft 476 kts 25°
2026-05-05 08:19 -6.71649 113.14212 25104 ft 479 kts 25°
2026-05-05 08:19 -6.68570 113.15559 25616 ft 483 kts 25°
2026-05-05 08:19 -6.65512 113.16898 26067 ft 486 kts 24°
2026-05-05 08:19 -6.62390 113.18265 26561 ft 489 kts 25°
2026-05-05 08:20 -6.59253 113.19638 27023 ft 492 kts 24°
2026-05-05 08:20 -6.56090 113.21022 27479 ft 496 kts 24°
2026-05-05 08:20 -6.52919 113.22410 27935 ft 498 kts 24°
2026-05-05 08:20 -6.49761 113.23792 28351 ft 502 kts 24°
2026-05-05 08:21 -6.46546 113.25198 28771 ft 505 kts 24°
2026-05-05 08:21 -6.43296 113.26619 29164 ft 508 kts 24°
2026-05-05 08:21 -6.40083 113.28025 29555 ft 511 kts 24°
2026-05-05 08:21 -6.36812 113.29455 29937 ft 513 kts 24°
2026-05-05 08:22 -6.33522 113.30894 30351 ft 513 kts 24°
2026-05-05 08:22 -6.30245 113.32326 30924 ft 509 kts 24°
2026-05-05 08:22 -6.27051 113.33722 31533 ft 504 kts 24°
2026-05-05 08:22 -6.23857 113.35147 32147 ft 500 kts 25°
2026-05-05 08:23 -6.20711 113.36635 32705 ft 496 kts 26°
2026-05-05 08:23 -6.17615 113.38149 33217 ft 493 kts 26°
2026-05-05 08:23 -6.14537 113.39673 33761 ft 490 kts 26°
2026-05-05 08:23 -6.11483 113.41188 34180 ft 488 kts 26°
2026-05-05 08:24 -6.08464 113.42681 34504 ft 488 kts 26°
2026-05-05 08:24 -6.05388 113.44193 34622 ft 492 kts 26°
2026-05-05 08:24 -5.99254 113.47194 34992 ft 495 kts 25°
2026-05-05 08:25 -5.96150 113.48708 35229 ft 495 kts 25°
2026-05-05 08:25 -5.93052 113.50219 35497 ft 495 kts 25°
2026-05-05 08:25 -5.89939 113.51737 35753 ft 495 kts 25°
2026-05-05 08:25 -5.86872 113.53233 35999 ft 495 kts 25°
2026-05-05 08:26 -5.83767 113.54748 36287 ft 494 kts 25°
2026-05-05 08:26 -5.80668 113.56260 36566 ft 494 kts 25°
2026-05-05 08:26 -5.77610 113.57751 36849 ft 493 kts 25°
2026-05-05 08:26 -5.74515 113.59261 37161 ft 493 kts 25°
2026-05-05 08:27 -5.71422 113.60769 37443 ft 493 kts 25°
2026-05-05 08:27 -5.68332 113.62276 37742 ft 492 kts 25°
2026-05-05 08:27 -5.65281 113.63764 38037 ft 491 kts 25°
2026-05-05 08:27 -5.62203 113.65265 38317 ft 491 kts 25°
2026-05-05 08:28 -5.59131 113.66763 38600 ft 490 kts 25°
2026-05-05 08:28 -5.56060 113.68260 38876 ft 488 kts 25°
2026-05-05 08:28 -5.53014 113.69746 39203 ft 485 kts 25°
2026-05-05 08:28 -5.50002 113.71214 39469 ft 484 kts 25°
2026-05-05 08:29 -5.46960 113.72696 39707 ft 483 kts 25°
2026-05-05 08:29 -5.43927 113.74174 39967 ft 482 kts 25°
2026-05-05 08:29 -5.40940 113.75629 40196 ft 481 kts 25°
2026-05-05 08:30 -5.34930 113.78556 40734 ft 478 kts 25°
2026-05-05 08:30 -5.31928 113.80017 40878 ft 477 kts 25°
2026-05-05 08:30 -5.28976 113.81455 40831 ft 476 kts 25°
2026-05-05 08:31 -5.22979 113.84375 40829 ft 477 kts 25°
2026-05-05 08:31 -5.17024 113.87273 40828 ft 476 kts 25°
2026-05-05 08:32 -5.11098 113.90156 40832 ft 475 kts 25°
2026-05-05 08:32 -5.05137 113.93056 40831 ft 475 kts 25°
2026-05-05 08:33 -4.99219 113.95935 40829 ft 475 kts 25°
2026-05-05 08:33 -4.93273 113.98842 40830 ft 474 kts 26°
2026-05-05 08:34 -4.87344 114.01790 40825 ft 474 kts 26°
2026-05-05 08:34 -4.81449 114.04732 40827 ft 473 kts 26°
2026-05-05 08:35 -4.75548 114.07673 40826 ft 473 kts 26°
2026-05-05 08:35 -4.69672 114.10597 40827 ft 474 kts 26°
2026-05-05 08:36 -4.63736 114.13548 40826 ft 474 kts 26°
2026-05-05 08:36 -4.57844 114.16478 40826 ft 474 kts 26°
2026-05-05 08:37 -4.51965 114.19400 40824 ft 474 kts 26°
2026-05-05 08:37 -4.46026 114.22352 40824 ft 474 kts 26°
2026-05-05 08:38 -4.40152 114.25271 40823 ft 474 kts 26°
2026-05-05 08:38 -4.35194 114.27735 40825 ft 474 kts 26°
2026-05-05 08:39 -4.29311 114.30658 40823 ft 474 kts 26°
2026-05-05 08:39 -4.22433 114.34074 40820 ft 474 kts 26°
2026-05-05 08:40 -4.17504 114.36522 40819 ft 474 kts 26°
2026-05-05 08:40 -4.11576 114.39465 40821 ft 474 kts 26°
2026-05-05 08:41 -4.05674 114.42396 40820 ft 475 kts 26°
2026-05-05 08:41 -3.99722 114.45350 40810 ft 476 kts 26°
2026-05-05 08:42 -3.93818 114.48280 40812 ft 476 kts 26°
2026-05-05 08:42 -3.87861 114.51236 40798 ft 476 kts 26°
2026-05-05 08:43 -3.81963 114.54163 40803 ft 476 kts 26°
2026-05-05 08:43 -3.76018 114.57111 40805 ft 475 kts 27°
2026-05-05 08:44 -3.70098 114.60047 40785 ft 474 kts 27°
2026-05-05 08:44 -3.64213 114.62966 40785 ft 474 kts 27°
2026-05-05 08:45 -3.58280 114.65908 40779 ft 474 kts 27°
2026-05-05 08:45 -3.52396 114.68825 40779 ft 474 kts 27°
2026-05-05 08:46 -3.46460 114.71671 40803 ft 474 kts 22°
2026-05-05 08:46 -3.40031 114.73219 40804 ft 477 kts
2026-05-05 08:47 -3.33404 114.73670 40802 ft 480 kts
2026-05-05 08:47 -3.26712 114.73908 40793 ft 480 kts
2026-05-05 08:48 -3.20024 114.74134 40787 ft 480 kts
2026-05-05 08:48 -3.13382 114.74387 40777 ft 480 kts
2026-05-05 08:49 -3.06695 114.74660 40776 ft 480 kts
2026-05-05 08:49 -3.00046 114.74935 40779 ft 480 kts
2026-05-05 08:50 -2.93352 114.75210 40772 ft 480 kts
2026-05-05 08:50 -2.86695 114.75483 40772 ft 480 kts
2026-05-05 08:51 -2.80004 114.75757 40773 ft 480 kts
2026-05-05 08:51 -2.73318 114.76031 40778 ft 480 kts
2026-05-05 08:52 -2.66674 114.76302 40785 ft 479 kts
2026-05-05 08:52 -2.59989 114.76576 40783 ft 479 kts
2026-05-05 08:53 -2.53362 114.76847 40782 ft 479 kts
2026-05-05 08:53 -2.46678 114.77121 40781 ft 479 kts
2026-05-05 08:54 -2.39990 114.77394 40787 ft 479 kts
2026-05-05 08:54 -2.33355 114.77666 40788 ft 479 kts
2026-05-05 08:55 -2.26684 114.77939 40786 ft 479 kts
2026-05-05 08:55 -2.20013 114.78212 40790 ft 479 kts
2026-05-05 08:56 -2.13354 114.78484 40793 ft 479 kts
2026-05-05 08:56 -2.06717 114.78755 40789 ft 479 kts
2026-05-05 08:57 -2.00021 114.79029 40795 ft 482 kts
2026-05-05 08:57 -1.93336 114.79303 40795 ft 483 kts
2026-05-05 08:58 -1.86634 114.79577 40795 ft 483 kts
2026-05-05 08:58 -1.79880 114.79853 40798 ft 483 kts
2026-05-05 08:59 -1.73197 114.80126 40800 ft 483 kts
2026-05-05 08:59 -1.66481 114.80400 40798 ft 486 kts
2026-05-05 09:00 -1.59708 114.80677 40803 ft 487 kts
2026-05-05 09:00 -1.52936 114.80954 40803 ft 487 kts
2026-05-05 09:01 -1.46177 114.81230 40801 ft 487 kts
2026-05-05 09:01 -1.39388 114.81507 40799 ft 487 kts
2026-05-05 09:02 -1.32643 114.81783 40804 ft 487 kts
2026-05-05 09:02 -1.25844 114.82061 40803 ft 488 kts
2026-05-05 09:03 -1.19083 114.82337 40805 ft 488 kts
2026-05-05 09:03 -1.12291 114.82615 40807 ft 488 kts
2026-05-05 09:04 -1.05537 114.82890 40807 ft 488 kts
2026-05-05 09:04 -0.98740 114.83168 40808 ft 487 kts
2026-05-05 09:05 -0.91952 114.83433 40808 ft 488 kts
2026-05-05 09:05 -0.85181 114.83525 40809 ft 488 kts
2026-05-05 09:06 -0.78365 114.83544 40813 ft 488 kts
2026-05-05 09:06 -0.71617 114.83570 40809 ft 488 kts
2026-05-05 09:07 -0.64810 114.83612 40808 ft 488 kts
2026-05-05 09:07 -0.58013 114.83661 40806 ft 488 kts
2026-05-05 09:08 -0.51251 114.83709 40808 ft 488 kts
2026-05-05 09:08 -0.44448 114.83758 40812 ft 488 kts
2026-05-05 09:09 -0.37671 114.83806 40815 ft 488 kts
2026-05-05 09:09 -0.30863 114.83855 40810 ft 488 kts
2026-05-05 09:10 -0.24086 114.83903 40812 ft 489 kts
2026-05-05 09:10 -0.17268 114.83951 40814 ft 489 kts
2026-05-05 09:11 -0.10444 114.83999 40816 ft 489 kts
2026-05-05 09:11 -0.03664 114.84048 40815 ft 489 kts
2026-05-05 09:12 0.03155 114.84095 40822 ft 489 kts
2026-05-05 09:12 0.09906 114.84143 40826 ft 487 kts
2026-05-05 09:13 0.16702 114.84191 40821 ft 486 kts
2026-05-05 09:13 0.23449 114.84240 40823 ft 486 kts
2026-05-05 09:14 0.30222 114.84288 40825 ft 486 kts
2026-05-05 09:14 0.37003 114.84336 40828 ft 486 kts
2026-05-05 09:15 0.43747 114.84384 40830 ft 486 kts
2026-05-05 09:15 0.50532 114.84433 40828 ft 486 kts
2026-05-05 09:16 0.57319 114.84480 40834 ft 486 kts
2026-05-05 09:16 0.64060 114.84528 40833 ft 486 kts
2026-05-05 09:17 0.70855 114.84576 40826 ft 486 kts
2026-05-05 09:17 0.77583 114.84623 40828 ft 485 kts
2026-05-05 09:18 0.84313 114.84671 40832 ft 485 kts
2026-05-05 09:18 0.91069 114.84719 40833 ft 485 kts
2026-05-05 09:19 0.97819 114.84768 40839 ft 485 kts
2026-05-05 09:19 1.04570 114.84815 40836 ft 485 kts
2026-05-05 09:20 1.11278 114.84863 40845 ft 484 kts
2026-05-05 09:20 1.18025 114.84911 40842 ft 484 kts
2026-05-05 09:21 1.24775 114.84959 40862 ft 484 kts
2026-05-05 09:21 1.31481 114.85006 40861 ft 484 kts
2026-05-05 09:22 1.38219 114.85054 40858 ft 484 kts
2026-05-05 09:22 1.44975 114.85102 40861 ft 484 kts
2026-05-05 09:23 1.51678 114.85149 40864 ft 484 kts
2026-05-05 09:23 1.58397 114.85197 40864 ft 484 kts
2026-05-05 09:24 1.65160 114.85245 40865 ft 484 kts
2026-05-05 09:24 1.71869 114.85293 40863 ft 484 kts
2026-05-05 09:25 1.77493 114.85333 40861 ft 483 kts
2026-05-05 09:25 1.84189 114.85379 40854 ft 483 kts
2026-05-05 09:26 1.92034 114.85435 40853 ft 483 kts
2026-05-05 09:26 1.97626 114.85475 40858 ft 483 kts
2026-05-05 09:27 2.04352 114.85523 40858 ft 483 kts
2026-05-05 09:27 2.11042 114.85571 40864 ft 483 kts
2026-05-05 09:28 2.17778 114.85619 40861 ft 483 kts
2026-05-05 09:28 2.24528 114.85667 40867 ft 483 kts
2026-05-05 09:29 2.31231 114.85722 40866 ft 483 kts
2026-05-05 09:29 2.37966 114.85780 40874 ft 483 kts
2026-05-05 09:30 2.44670 114.85839 40876 ft 483 kts
2026-05-05 09:30 2.51402 114.85897 40873 ft 482 kts
2026-05-05 09:31 2.58075 114.85955 40879 ft 482 kts
2026-05-05 09:31 2.64790 114.86014 40871 ft 482 kts
2026-05-05 09:32 2.71515 114.86072 40866 ft 482 kts
2026-05-05 09:32 2.78193 114.86129 40858 ft 482 kts
2026-05-05 09:33 2.84908 114.86187 40859 ft 481 kts
2026-05-05 09:33 2.91559 114.86244 40850 ft 480 kts
2026-05-05 09:34 2.98248 114.86302 40849 ft 480 kts
2026-05-05 09:34 3.04946 114.86360 40845 ft 480 kts
2026-05-05 09:35 3.11605 114.86417 40847 ft 480 kts
2026-05-05 09:35 3.21657 114.86504 40843 ft 481 kts
2026-05-05 09:36 3.28336 114.86562 40844 ft 481 kts
2026-05-05 09:36 3.35038 114.86620 40845 ft 481 kts
2026-05-05 09:37 3.41698 114.86678 40845 ft 481 kts
2026-05-05 09:37 3.48390 114.86735 40837 ft 481 kts
2026-05-05 09:38 3.55091 114.86793 40839 ft 481 kts
2026-05-05 09:38 3.61805 114.86851 40840 ft 481 kts
2026-05-05 09:39 3.68487 114.86909 40838 ft 481 kts
2026-05-05 09:39 3.75206 114.86967 40847 ft 481 kts
2026-05-05 09:40 3.81870 114.87025 40843 ft 481 kts
2026-05-05 09:40 3.88582 114.87083 40852 ft 481 kts
2026-05-05 09:41 3.95250 114.87140 40849 ft 482 kts
2026-05-05 09:41 4.01967 114.87199 40849 ft 482 kts
2026-05-05 09:42 4.08650 114.87257 40847 ft 481 kts
2026-05-05 09:42 4.15375 114.87315 40844 ft 481 kts
2026-05-05 09:43 4.22059 114.87373 40845 ft 483 kts
2026-05-05 09:43 4.28810 114.87432 40843 ft 484 kts
2026-05-05 09:44 4.35514 114.87490 40839 ft 484 kts
2026-05-05 09:44 4.42259 114.87549 40837 ft 484 kts
2026-05-05 09:45 4.49006 114.87658 40838 ft 484 kts
2026-05-05 09:45 4.55744 114.87820 40835 ft 484 kts
2026-05-05 09:46 4.62454 114.87983 40830 ft 484 kts
2026-05-05 09:46 4.69213 114.88141 40831 ft 484 kts
2026-05-05 09:47 4.75928 114.88294 40831 ft 484 kts
2026-05-05 09:47 4.82680 114.88448 40834 ft 484 kts
2026-05-05 09:48 4.89389 114.88555 40827 ft 484 kts
2026-05-05 09:48 4.96133 114.88426 40827 ft 483 kts 359°
2026-05-05 09:49 5.02836 114.88231 40829 ft 483 kts 359°
2026-05-05 09:49 5.09577 114.88051 40827 ft 483 kts 360°
2026-05-05 09:50 5.16284 114.87890 40826 ft 483 kts 360°
2026-05-05 09:50 5.23033 114.87736 40823 ft 483 kts 359°
2026-05-05 09:51 5.29703 114.87584 40827 ft 481 kts 359°
2026-05-05 09:51 5.36417 114.87450 40828 ft 481 kts
2026-05-05 09:52 5.43115 114.87368 40826 ft 481 kts
2026-05-05 09:52 5.49798 114.87297 40827 ft 481 kts
2026-05-05 09:53 5.56462 114.87222 40825 ft 481 kts
2026-05-05 09:53 5.63156 114.87139 40824 ft 480 kts 360°
2026-05-05 09:54 5.69838 114.87038 40821 ft 480 kts 360°
2026-05-05 09:54 5.76527 114.86933 40824 ft 480 kts 360°
2026-05-05 09:55 5.83185 114.86830 40823 ft 480 kts 360°
2026-05-05 09:55 5.89869 114.86728 40820 ft 480 kts 359°
2026-05-05 09:56 5.96557 114.86623 40825 ft 479 kts 359°
2026-05-05 09:56 6.03178 114.86508 40821 ft 479 kts 359°
2026-05-05 09:57 6.09865 114.86389 40824 ft 479 kts 359°
2026-05-05 09:57 6.16550 114.86271 40821 ft 479 kts 359°
2026-05-05 09:58 6.23205 114.86154 40825 ft 479 kts 360°
2026-05-05 09:58 6.29863 114.86038 40822 ft 477 kts 360°
2026-05-05 09:59 6.36453 114.85933 40828 ft 476 kts
2026-05-05 09:59 6.43106 114.85841 40828 ft 476 kts
2026-05-05 10:00 6.49713 114.85750 40831 ft 476 kts
2026-05-05 10:00 6.56346 114.85658 40829 ft 476 kts
2026-05-05 10:01 6.62994 114.85565 40825 ft 478 kts
2026-05-05 10:01 6.69606 114.85471 40826 ft 478 kts
2026-05-05 10:02 6.76284 114.85377 40825 ft 478 kts
2026-05-05 10:02 6.82934 114.85283 40828 ft 478 kts
2026-05-05 10:03 6.89601 114.85190 40825 ft 478 kts
2026-05-05 10:03 6.96273 114.85096 40829 ft 479 kts 360°
2026-05-05 10:04 7.02933 114.85002 40823 ft 480 kts 360°
2026-05-05 10:04 7.09624 114.84908 40826 ft 480 kts 360°
2026-05-05 10:05 7.16289 114.84814 40827 ft 480 kts 360°
2026-05-05 10:05 7.22994 114.84717 40828 ft 480 kts 360°
2026-05-05 10:06 7.29657 114.84621 40829 ft 480 kts 360°
2026-05-05 10:06 7.36359 114.84525 40829 ft 480 kts 360°
2026-05-05 10:07 7.43012 114.84429 40828 ft 480 kts 360°
2026-05-05 10:07 7.49716 114.84333 40835 ft 480 kts 360°
2026-05-05 10:08 7.56372 114.84237 40837 ft 480 kts 360°
2026-05-05 10:08 7.63059 114.84141 40838 ft 480 kts 360°
2026-05-05 10:09 7.69764 114.84045 40833 ft 481 kts 360°
2026-05-05 10:09 7.76432 114.83949 40832 ft 481 kts 360°
2026-05-05 10:10 7.83135 114.83853 40832 ft 481 kts 360°
2026-05-05 10:10 7.88706 114.83773 40837 ft 481 kts 360°
2026-05-05 10:11 7.96494 114.83660 40835 ft 480 kts 360°
2026-05-05 10:11 8.03187 114.83564 40836 ft 480 kts 360°
2026-05-05 10:12 8.09849 114.83468 40837 ft 480 kts 360°
2026-05-05 10:12 8.15424 114.83388 40839 ft 480 kts 360°
2026-05-05 10:13 8.22090 114.83291 40838 ft 480 kts 360°
2026-05-05 10:13 8.29887 114.83170 40840 ft 480 kts 360°
2026-05-05 10:14 8.35457 114.83084 40838 ft 481 kts 360°
2026-05-05 10:14 8.42165 114.82980 40843 ft 481 kts 360°
2026-05-05 10:15 8.48840 114.82877 40843 ft 481 kts 360°
2026-05-05 10:15 8.55539 114.82774 40838 ft 481 kts 360°
2026-05-05 10:16 8.62236 114.82670 40842 ft 481 kts 360°
2026-05-05 10:16 8.68932 114.82567 40843 ft 483 kts 360°
2026-05-05 10:17 8.75640 114.82464 40841 ft 484 kts 360°
2026-05-05 10:17 8.82407 114.82359 40843 ft 484 kts 360°
2026-05-05 10:18 8.89113 114.82256 40845 ft 484 kts 360°
2026-05-05 10:18 8.95862 114.82151 40841 ft 484 kts 359°
2026-05-05 10:19 9.02600 114.82047 40841 ft 483 kts 359°
2026-05-05 10:19 9.09287 114.81944 40844 ft 483 kts 359°
2026-05-05 10:20 9.16035 114.81839 40845 ft 483 kts 359°
2026-05-05 10:20 9.22731 114.81736 40847 ft 483 kts 359°
2026-05-05 10:21 9.29470 114.81632 40847 ft 483 kts 359°
2026-05-05 10:21 9.36194 114.81528 40844 ft 486 kts 359°
2026-05-05 10:22 9.42971 114.81422 40845 ft 486 kts 358°
2026-05-05 10:22 9.49702 114.81318 40844 ft 486 kts 359°
2026-05-05 10:23 9.56476 114.81213 40846 ft 486 kts 359°
2026-05-05 10:23 9.63224 114.81109 40850 ft 484 kts 358°
2026-05-05 10:24 9.69952 114.81005 40846 ft 481 kts 358°
2026-05-05 10:24 9.76601 114.80902 40850 ft 479 kts 358°
2026-05-05 10:25 9.83288 114.80794 40850 ft 479 kts 358°
2026-05-05 10:25 9.89962 114.80637 40847 ft 479 kts 358°
2026-05-05 10:26 9.96600 114.80459 40847 ft 479 kts 358°
2026-05-05 10:26 10.03277 114.80281 40851 ft 479 kts 358°
2026-05-05 10:27 10.09954 114.80109 40850 ft 479 kts 358°
2026-05-05 10:27 10.16587 114.79939 40852 ft 479 kts 358°
2026-05-05 10:28 10.23235 114.79769 40850 ft 479 kts 358°
2026-05-05 10:28 10.29902 114.79599 40843 ft 479 kts 358°
2026-05-05 10:29 10.36591 114.79427 40850 ft 482 kts 357°
2026-05-05 10:29 10.43282 114.79256 40853 ft 483 kts 357°
2026-05-05 10:30 10.50015 114.79083 40852 ft 483 kts 357°
2026-05-05 10:30 10.56706 114.78912 40853 ft 483 kts 357°
2026-05-05 10:31 10.63430 114.78739 40853 ft 483 kts 357°
2026-05-05 10:31 10.70170 114.78566 40853 ft 483 kts 357°
2026-05-05 10:32 10.76749 114.78397 40853 ft 483 kts 357°
2026-05-05 10:32 10.83499 114.78223 40857 ft 483 kts 357°
2026-05-05 10:33 10.90192 114.78051 40853 ft 483 kts 357°
2026-05-05 10:33 10.96891 114.77879 40852 ft 483 kts 357°
2026-05-05 10:34 11.03610 114.77706 40855 ft 482 kts 357°
2026-05-05 10:34 11.10325 114.77533 40856 ft 482 kts 357°
2026-05-05 10:35 11.17002 114.77361 40857 ft 482 kts 357°
2026-05-05 10:35 11.23729 114.77187 40861 ft 482 kts 357°
2026-05-05 10:36 11.30444 114.77014 40863 ft 482 kts 357°
2026-05-05 10:36 11.37112 114.76842 40857 ft 481 kts 357°
2026-05-05 10:37 11.43817 114.76669 40861 ft 481 kts 357°
2026-05-05 10:37 11.50489 114.76486 40857 ft 481 kts 356°
2026-05-05 10:38 11.57205 114.76182 40858 ft 480 kts 355°
2026-05-05 10:38 11.63848 114.75834 40861 ft 480 kts 355°
2026-05-05 10:39 11.70542 114.75489 40858 ft 480 kts 355°
2026-05-05 10:39 11.77171 114.75158 40861 ft 479 kts 355°
2026-05-05 10:40 11.83833 114.74829 40862 ft 479 kts 355°
2026-05-05 10:40 11.90501 114.74500 40863 ft 479 kts 355°
2026-05-05 10:41 11.97143 114.74192 40867 ft 479 kts 356°
2026-05-05 10:41 12.03837 114.73975 40864 ft 478 kts 356°
2026-05-05 10:42 12.13769 114.73687 40863 ft 478 kts 356°
2026-05-05 10:43 12.20445 114.73484 40867 ft 478 kts 356°
2026-05-05 10:43 12.27053 114.73278 40864 ft 478 kts 356°
2026-05-05 10:44 12.33715 114.73070 40866 ft 478 kts 356°
2026-05-05 10:44 12.40369 114.72862 40870 ft 477 kts 356°
2026-05-05 10:45 12.46977 114.72656 40865 ft 477 kts 356°
2026-05-05 10:45 12.53632 114.72448 40870 ft 477 kts 356°
2026-05-05 10:46 12.60281 114.72240 40866 ft 477 kts 356°
2026-05-05 10:46 12.66880 114.72034 40868 ft 477 kts 356°
2026-05-05 10:47 12.73539 114.71825 40868 ft 477 kts 356°
2026-05-05 10:47 12.80175 114.71618 40868 ft 477 kts 356°
2026-05-05 10:48 12.86789 114.71410 40874 ft 477 kts 356°
2026-05-05 10:48 12.93397 114.71203 40871 ft 477 kts 356°
2026-05-05 10:49 13.00031 114.70995 40875 ft 477 kts 356°
2026-05-05 10:49 13.06680 114.70787 40874 ft 477 kts 356°
2026-05-05 10:50 13.13276 114.70580 40874 ft 477 kts 356°
2026-05-05 10:50 13.19925 114.70371 40872 ft 477 kts 356°
2026-05-05 10:51 13.26536 114.70163 40871 ft 477 kts 356°
2026-05-05 10:51 13.33177 114.69954 40873 ft 477 kts 356°
2026-05-05 10:52 13.39827 114.69745 40874 ft 477 kts 356°
2026-05-05 10:52 13.46424 114.69537 40873 ft 477 kts 356°
2026-05-05 10:53 13.53078 114.69328 40876 ft 477 kts 356°
2026-05-05 10:53 13.59694 114.69119 40876 ft 477 kts 356°
2026-05-05 10:54 13.66349 114.68910 40878 ft 477 kts 356°
2026-05-05 10:54 13.72954 114.68701 40879 ft 477 kts 356°
2026-05-05 10:55 13.79609 114.68491 40878 ft 477 kts 356°
2026-05-05 10:55 13.86247 114.68282 40879 ft 477 kts 356°
2026-05-05 10:56 13.92887 114.68072 40874 ft 477 kts 356°
2026-05-05 10:56 13.99492 114.67864 40874 ft 477 kts 356°
2026-05-05 10:57 14.06127 114.67653 40878 ft 477 kts 356°
2026-05-05 10:57 14.12767 114.67442 40878 ft 477 kts 356°
2026-05-05 10:58 14.19417 114.67231 40878 ft 477 kts 356°
2026-05-05 10:58 14.26030 114.67021 40878 ft 477 kts 355°
2026-05-05 10:59 14.32678 114.66810 40877 ft 477 kts 356°
2026-05-05 10:59 14.39324 114.66599 40876 ft 477 kts 356°
2026-05-05 11:00 14.45928 114.66389 40880 ft 477 kts 356°
2026-05-05 11:00 14.52595 114.66177 40881 ft 477 kts 355°
2026-05-05 11:01 14.59201 114.65967 40883 ft 477 kts 356°
2026-05-05 11:01 14.65847 114.65756 40884 ft 477 kts 355°
2026-05-05 11:02 14.72466 114.65545 40881 ft 477 kts 355°
2026-05-05 11:02 14.79123 114.65333 40882 ft 477 kts 355°
2026-05-05 11:03 14.84652 114.65157 40882 ft 477 kts 355°
2026-05-05 11:03 14.91278 114.64946 40883 ft 477 kts 355°
2026-05-05 11:04 14.97929 114.64734 40884 ft 477 kts 355°
2026-05-05 11:04 15.04550 114.64522 40884 ft 478 kts 355°
2026-05-05 11:05 15.11218 114.64309 40881 ft 478 kts 355°
2026-05-05 11:05 15.17851 114.64097 40882 ft 478 kts 355°
2026-05-05 11:06 15.24458 114.63886 40883 ft 478 kts 355°
2026-05-05 11:06 15.31116 114.63673 40885 ft 478 kts 355°
2026-05-05 11:07 15.37783 114.63459 40878 ft 478 kts 355°
2026-05-05 11:07 15.44420 114.63247 40880 ft 478 kts 355°
2026-05-05 11:08 15.51097 114.63033 40884 ft 478 kts 355°
2026-05-05 11:08 15.57723 114.62820 40896 ft 478 kts 355°
2026-05-05 11:09 15.64389 114.62606 40884 ft 478 kts 355°
2026-05-05 11:09 15.71010 114.62394 40887 ft 478 kts 355°
2026-05-05 11:10 15.77665 114.62180 40882 ft 478 kts 355°
2026-05-05 11:10 15.84297 114.61967 40883 ft 478 kts 355°
2026-05-05 11:11 15.90960 114.61753 40888 ft 478 kts 355°
2026-05-05 11:11 15.97581 114.61539 40884 ft 477 kts 355°
2026-05-05 11:12 16.04243 114.61324 40889 ft 477 kts 355°
2026-05-05 11:12 16.10896 114.61109 40885 ft 478 kts 355°
2026-05-05 11:13 16.17508 114.60895 40886 ft 478 kts 355°
2026-05-05 11:13 16.24162 114.60680 40901 ft 478 kts 355°
2026-05-05 11:14 16.30800 114.60465 40892 ft 479 kts 355°
2026-05-05 11:14 16.37469 114.60250 40887 ft 479 kts 355°
2026-05-05 11:15 16.44108 114.60035 40890 ft 479 kts 355°
2026-05-05 11:15 16.50789 114.59819 40894 ft 479 kts 355°
2026-05-05 11:16 16.57394 114.59604 40895 ft 479 kts 355°
2026-05-05 11:16 16.64039 114.59389 40892 ft 480 kts 355°
2026-05-05 11:17 16.70705 114.59172 40894 ft 480 kts 355°
2026-05-05 11:17 16.77393 114.58955 40890 ft 480 kts 355°
2026-05-05 11:18 16.84059 114.58738 40897 ft 480 kts 355°
2026-05-05 11:18 16.90767 114.58520 40899 ft 480 kts 355°
2026-05-05 11:19 16.97417 114.58304 40894 ft 480 kts 355°
2026-05-05 11:19 17.04104 114.58086 40904 ft 480 kts 355°
2026-05-05 11:20 17.10756 114.57869 40894 ft 480 kts 355°
2026-05-05 11:20 17.17445 114.57651 40895 ft 480 kts 355°
2026-05-05 11:21 17.24081 114.57434 40904 ft 480 kts 355°
2026-05-05 11:21 17.30768 114.57216 40902 ft 480 kts 355°
2026-05-05 11:22 17.37420 114.56999 40910 ft 480 kts 355°
2026-05-05 11:22 17.44125 114.56789 40908 ft 480 kts 355°
2026-05-05 11:23 17.50756 114.56586 40907 ft 480 kts 355°
2026-05-05 11:23 17.57423 114.56382 40906 ft 478 kts 355°
2026-05-05 11:24 17.64064 114.56178 40911 ft 477 kts 355°
2026-05-05 11:24 17.70723 114.55973 40911 ft 477 kts 355°
2026-05-05 11:25 17.77374 114.55767 40911 ft 477 kts 355°
2026-05-05 11:25 17.83991 114.55563 40913 ft 477 kts 355°
2026-05-05 11:26 17.89518 114.55392 40913 ft 475 kts 355°
2026-05-05 11:26 17.97209 114.55155 40915 ft 474 kts 355°
2026-05-05 11:27 18.03836 114.54949 40914 ft 474 kts 355°
2026-05-05 11:27 18.10412 114.54745 40914 ft 474 kts 355°
2026-05-05 11:28 18.16943 114.54543 40916 ft 474 kts 355°
2026-05-05 11:28 18.23518 114.54557 40916 ft 476 kts
2026-05-05 11:29 18.30081 114.55692 40919 ft 478 kts
2026-05-05 11:29 18.36586 114.57092 40919 ft 479 kts
2026-05-05 11:30 18.43120 114.58553 40921 ft 479 kts
2026-05-05 11:30 18.49652 114.60001 40922 ft 478 kts
2026-05-05 11:31 18.56172 114.61432 40922 ft 478 kts
2026-05-05 11:31 18.62649 114.62849 40928 ft 478 kts
2026-05-05 11:32 18.69178 114.64277 40927 ft 478 kts
2026-05-05 11:32 18.75655 114.65697 40937 ft 478 kts
2026-05-05 11:33 18.82182 114.67130 40926 ft 477 kts
2026-05-05 11:33 18.88699 114.68561 40931 ft 477 kts
2026-05-05 11:34 18.95173 114.69984 40930 ft 477 kts
2026-05-05 11:34 19.01737 114.70756 40934 ft 470 kts 355°
2026-05-05 11:35 19.08242 114.70415 40935 ft 469 kts 352°
2026-05-05 11:35 19.14727 114.69862 40936 ft 469 kts 352°
2026-05-05 11:36 19.21248 114.69275 40934 ft 469 kts 352°
2026-05-05 11:36 19.27763 114.68707 40936 ft 469 kts 352°
2026-05-05 11:37 19.34239 114.68156 40937 ft 469 kts 352°
2026-05-05 11:37 19.40756 114.67606 40938 ft 469 kts 352°
2026-05-05 11:38 19.47272 114.67055 40936 ft 469 kts 352°
2026-05-05 11:38 19.53762 114.66505 40940 ft 469 kts 352°
2026-05-05 11:39 19.60278 114.65953 40940 ft 469 kts 352°